This is the latest recevied weather packets stored in our database for station/object N1TKS. If no packets are shown the sender has not sent any weather packets the latest 10 day(s).
| Time | Temp. | Humidity | Pressure | Rain* | Wind** | Luminosity | Snow |
|---|---|---|---|---|---|---|---|
| 1778048213 | 14.44° C | 83% | 1010.8 hPa | 0 mm | - | - | - |
| 1778047914 | 14.44° C | 83% | 1010.8 hPa | 0 mm | - | - | - |
| 1778047817 | 15° C | 82% | 1010.7 hPa | 0 mm | - | - | - |
| 1778047613 | 14.44° C | 83% | 1010.9 hPa | 0 mm | - | - | - |
| 1778047313 | 14.44° C | 82% | 1010.8 hPa | 0 mm | - | - | - |
| 1778047014 | 15° C | 82% | 1010.8 hPa | 0 mm | - | - | - |
| 1778046713 | 15° C | 82% | 1010.8 hPa | 0 mm | - | - | - |
| 1778046413 | 15° C | 82% | 1010.7 hPa | 0 mm | - | - | - |
| 1778046114 | 15° C | 82% | 1010.7 hPa | 0 mm | - | - | - |
| 1778045885 | 15.56° C | 81% | 1011.1 hPa | 0 mm | - | - | - |
| 1778045885 | 15° C | 82% | 1010.8 hPa | 0 mm | - | - | - |
| 1778045814 | 15° C | 82% | 1010.8 hPa | 0 mm | - | - | - |
| 1778045514 | 15° C | 82% | 1011 hPa | 0 mm | - | - | - |
| 1778045214 | 15° C | 82% | 1011.1 hPa | 0 mm | - | - | - |
| 1778044614 | 15° C | 81% | 1011.1 hPa | 0 mm | - | - | - |
| 1778044313 | 15° C | 81% | 1011.1 hPa | 0 mm | - | - | - |
| 1778044045 | 16.11° C | 80% | 1011.2 hPa | 0 mm | - | - | - |
| 1778044045 | 15.56° C | 81% | 1011.1 hPa | 0 mm | - | - | - |
| 1778044013 | 15.56° C | 81% | 1011.1 hPa | 0 mm | - | - | - |
| 1778043978 | 15.56° C | 80% | 1011.2 hPa | 0 mm | - | - | - |
| 1778043971 | 16.11° C | 80% | 1011.2 hPa | 0 mm | - | - | - |
| 1778043964 | 16.11° C | 80% | 1011.2 hPa | 0 mm | - | - | - |
| 1778043714 | 15.56° C | 81% | 1011.2 hPa | 0 mm | - | - | - |
| 1778043413 | 15.56° C | 80% | 1011.1 hPa | 0 mm | - | - | - |
| 1778043114 | 15.56° C | 80% | 1011.2 hPa | 0 mm | - | - | - |
* Rain latest hour (hover to see other rain measurements)
** Current wind speed in m/s (hover to see current wind gust speed)